Tanana, AK

7:15 AM AKDT on May 28, 2017 (GMT -0800)
Calhoun Memorial

Weather History for PATA - March, 2013

Change the Weather History Date:

Tuesday, March 12, 2013

  Actual Average Record
Temperature  
Mean Temperature 2 °F -  
Max Temperature 21 °F 19 °F 40 °F (1988)
Min Temperature -16 °F -3 °F -40 °F (1966)
Degree Days  
Heating Degree Days 62    
Moisture  
Dew Point -8 °F    
Average Humidity 70    
Maximum Humidity 87    
Minimum Humidity 44    
Precipitation  
Precipitation 0.00 in - - ()
Snow  
Snow 0.00 in - - ()
Snow Depth 12.00 in    
Sea Level Pressure  
Sea Level Pressure 30.57 in    
Wind  
Wind Speed 3 mph (WNW)    
Max Wind Speed 7 mph    
Max Gust Speed -    
Visibility 10 miles    
Events      
Averages and records for this station are not official NWS values.
T = Trace of Precipitation, MM = Missing Value Source: NWS Daily Summary

Daily Weather History Graph

Daily Weather History Graph

Search for Another Location

Airport or City:

Trip Planner

Search our weather history database for the weather conditions in past years. The results will help you decide how hot, cold, wet, or windy it might be!

Date:

Astronomy

Mar. 12, 2013 Rise Set
Actual Time 8:36 AM AKDT 8:00 PM AKDT
Civil Twilight 7:47 AM AKDT 8:50 PM AKDT
Nautical Twilight 6:49 AM AKDT 9:49 PM AKDT
Astronomical Twilight 5:45 AM AKDT 10:54 PM AKDT
Moon 8:12 AM AKDT (3/12) 10:17 PM AKDT (3/12)
Length of Visible Light 13h 02m
Length of Day
11h 24m
New Moon, 1% of the Moon is Illuminated
Mar 12
New Moon
Mar 19
First Quarter
Mar 27
Full
Apr 2
Last Quarter
Apr 10
New

Hourly Weather History & Observations

Time (AKDT) Temp. Windchill Dew Point Humidity Pressure Visibility Wind Dir Wind Speed Gust Speed Precip Events Conditions
12:52 AM -5.1 °F -13.6 °F -9.9 °F 80% 30.66 in 10.0 mi NW 3.5 mph - N/A   Clear
1:52 AM -6.0 °F - -9.0 °F 87% 30.66 in 10.0 mi Calm Calm - N/A   Clear
2:52 AM -8.0 °F -16.9 °F -13.0 °F 79% 30.68 in 10.0 mi NNE 3.5 mph - N/A   Clear
3:52 AM -9.0 °F -18.2 °F -13.0 °F 83% 30.67 in 10.0 mi WNW 3.5 mph - N/A   Clear
4:52 AM -9.9 °F - -14.1 °F 82% 30.66 in 10.0 mi Calm Calm - N/A   Clear
5:52 AM -13.0 °F - -18.0 °F 78% 30.66 in 10.0 mi Calm Calm - N/A   Clear
6:52 AM -16.1 °F -30.6 °F -20.9 °F 79% 30.66 in 10.0 mi NW 5.8 mph - N/A   Clear
7:52 AM -16.1 °F -26.2 °F -20.9 °F 79% 30.65 in 10.0 mi NNE 3.5 mph - N/A   Partly Cloudy
8:52 AM -16.1 °F - -20.9 °F 79% 30.64 in 10.0 mi Calm Calm - N/A   Clear
9:52 AM -13.0 °F -22.7 °F -17.0 °F 82% 30.63 in 10.0 mi SW 3.5 mph - N/A   Clear
10:52 AM -7.1 °F - -11.0 °F 83% 30.63 in 10.0 mi Calm Calm - N/A   Clear
11:52 AM -0.9 °F - -5.1 °F 83% 30.62 in 10.0 mi Calm Calm - N/A   Clear
12:52 PM 8.1 °F - -2.0 °F 64% 30.60 in 10.0 mi Calm Calm - N/A   Clear
1:52 PM 12.0 °F 4.1 °F 1.0 °F 61% 30.58 in 10.0 mi WSW 4.6 mph - N/A   Clear
2:52 PM 17.1 °F 11.7 °F 1.9 °F 52% 30.56 in 10.0 mi West 3.5 mph - N/A   Clear
3:52 PM 19.9 °F 13.4 °F 3.0 °F 48% 30.53 in 10.0 mi West 4.6 mph - N/A   Clear
4:52 PM 21.0 °F 14.6 °F 3.0 °F 46% 30.51 in 10.0 mi West 4.6 mph - N/A   Clear
5:52 PM 19.9 °F 13.4 °F 1.9 °F 46% 30.49 in 10.0 mi WSW 4.6 mph - N/A   Clear
6:52 PM 19.9 °F 14.9 °F 1.0 °F 44% 30.46 in 10.0 mi WSW 3.5 mph - N/A   Clear
7:52 PM 16.0 °F 7.4 °F -0.0 °F 49% 30.45 in 10.0 mi NNW 5.8 mph - N/A   Clear
8:52 PM 9.0 °F -0.9 °F -2.0 °F 61% 30.45 in 10.0 mi North 5.8 mph - N/A   Clear
9:52 PM 3.9 °F - -4.0 °F 70% 30.44 in 10.0 mi Calm Calm - N/A   Clear
10:52 PM -5.1 °F -19.1 °F -9.9 °F 80% 30.44 in 10.0 mi North 6.9 mph - N/A   Clear
11:52 PM -0.9 °F - -7.1 °F 75% 30.42 in 10.0 mi Calm Calm - N/A   Clear